User: anonymous   Login
Location: Rochester
(43.1610°N, 77.6109°W)
Time: 00:29:54
(UTC-04:00)
Language:

M-CUBED/EXP-1 PRIME - Orbit

View from above orbital plane
View from above orbital plane
View from above satellite
View from above satellite

Ground track
Ground track

The orbit data is extracted from the following two-line orbital elements,

1 37855U 11061F   21290.24039201  .00004095  00000-0  19932-3 0  9997
2 37855 101.7225 276.9209 0164994  68.2656 293.6029 15.08345121545004
Epoch (UTC): 17 October 2021 05:46:09
Eccentricity: 0.0164994
inclination: 101.7225°
perigee height: 427 km
apogee height: 655 km
right ascension of ascending node: 276.9209°
argument of perigee: 68.2656°
revolutions per day: 15.08345121
mean anomaly at epoch: 293.6029°
orbit number at epoch: 54500

The dashed part of the orbit path shows where the satellite is in the earth's shadow,  

DLR